Belmar-Farmingdale, NJ

8:57 AM EST on November 20, 2019 (GMT -0500)
Allaire

Weather History for KBLM - September, 2019

Change the Weather History Date:

Thursday, September 26, 2019

  Actual Average Record
Temperature  
Mean Temperature 69 °F -  
Max Temperature 82 °F 68 °F 89 °F (2007)
Min Temperature 57 °F 53 °F 44 °F (2001)
Cooling Degree Days 4    
Growing Degree Days 19 (Base 50)    
Moisture  
Dew Point 63 °F    
Average Humidity 82    
Maximum Humidity 97    
Minimum Humidity 64    
Precipitation  
Precipitation 0.05 in - - ()
Sea Level Pressure  
Sea Level Pressure 29.84 in    
Wind  
Wind Speed 6 mph ()    
Max Wind Speed 18 mph    
Max Gust Speed 24 mph    
Visibility 9.9 miles    
Events Rain    
Averages and records for this station are not official NWS values.
T = Trace of Precipitation, MM = Missing Value Source: Averaged Metar Reports

Daily Weather History Graph

Daily Weather History Graph

Search for Another Location

Airport or City:

Astronomy

Sep. 26, 2019 Rise Set
Actual Time 6:47 AM EDT 6:47 PM EDT
Civil Twilight 6:20 AM EDT 7:14 PM EDT
Nautical Twilight 5:48 AM EDT 7:45 PM EDT
Astronomical Twilight 5:16 AM EDT 8:17 PM EDT
Moon 3:50 AM EDT (9/26) 5:59 PM EDT (9/26)
Length of Visible Light 12h 53m
Length of Day
11h 59m
Waning Crescent, 7% of the Moon is Illuminated
Sep 26
Waning Crescent
Sep 28
New
Oct 5
First Quarter
Oct 13
Full
Oct 21
Last Quarter

Hourly Weather History & Observations

Time (EDT) Temp. Heat Index Dew Point Humidity Pressure Visibility Wind Dir Wind Speed Gust Speed Precip Events Conditions
12:56 AM 62.1 °F - 55.0 °F 78% 29.89 in 10.0 mi SSW 5.8 mph - N/A   Clear
1:56 AM 61.0 °F - 55.9 °F 83% 29.88 in 10.0 mi SSW 5.8 mph - N/A   Clear
2:56 AM 60.1 °F - 57.0 °F 90% 29.88 in 10.0 mi SW 5.8 mph - N/A   Clear
3:56 AM 59.0 °F - 57.0 °F 93% 29.86 in 10.0 mi SSW 4.6 mph - N/A   Clear
4:56 AM 60.1 °F - 57.0 °F 90% 29.86 in 10.0 mi SW 5.8 mph - N/A   Clear
5:56 AM 57.9 °F - 55.9 °F 93% 29.86 in 10.0 mi SW 5.8 mph - N/A   Clear
6:56 AM 60.1 °F - 57.0 °F 90% 29.86 in 10.0 mi SSW 3.5 mph - N/A   Clear
7:56 AM 63.0 °F - 59.0 °F 87% 29.85 in 10.0 mi South 5.8 mph - N/A   Clear
8:56 AM 70.0 °F - 63.0 °F 78% 29.85 in 10.0 mi South 6.9 mph - N/A   Clear
9:56 AM 73.9 °F - 64.9 °F 73% 29.87 in 10.0 mi SW 6.9 mph 16.1 mph N/A   Clear
10:56 AM 78.1 °F - 66.0 °F 66% 29.82 in 10.0 mi South 10.4 mph - N/A   Partly Cloudy
11:56 AM 80.1 °F 82.3 °F 66.9 °F 64% 29.80 in 10.0 mi South 10.4 mph - N/A   Clear
12:56 PM 81.0 °F 83.8 °F 68.0 °F 65% 29.78 in 10.0 mi SSE 11.5 mph - N/A   Scattered Clouds
1:56 PM 79.0 °F - 69.1 °F 72% 29.76 in 10.0 mi SSE 10.4 mph - N/A   Mostly Cloudy
2:56 PM 79.0 °F - 70.0 °F 74% 29.74 in 10.0 mi SE 10.4 mph - N/A   Overcast
3:56 PM 78.1 °F - 71.1 °F 79% 29.72 in 10.0 mi Variable 5.8 mph - N/A   Overcast
4:20 PM 75.2 °F - 71.6 °F 89% 29.74 in 7.0 mi North 9.2 mph - 0.05 in Rain Rain
4:36 PM 77.0 °F - 71.6 °F 83% 29.74 in 10.0 mi West 3.5 mph - 0.05 in   Overcast
4:56 PM 75.9 °F - 66.9 °F 74% 29.77 in 10.0 mi NW 18.4 mph 24.2 mph 0.05 in   Overcast
5:11 PM 73.4 °F - 62.6 °F 69% 29.80 in 10.0 mi NW 12.7 mph - N/A   Overcast
5:56 PM 69.1 °F - 60.1 °F 73% 29.83 in 10.0 mi WNW 12.7 mph - 0.00 in Rain Light Rain
6:56 PM 66.9 °F - 61.0 °F 81% 29.83 in 10.0 mi NW 3.5 mph - 0.00 in   Overcast
7:56 PM 64.9 °F - 62.1 °F 90% 29.87 in 10.0 mi WNW 5.8 mph - N/A   Overcast
8:56 PM 64.0 °F - 61.0 °F 90% 29.92 in 10.0 mi WNW 4.6 mph - N/A   Scattered Clouds
9:56 PM 62.1 °F - 61.0 °F 96% 29.94 in 10.0 mi West 4.6 mph - N/A   Clear
10:56 PM 61.0 °F - 60.1 °F 97% 29.97 in 10.0 mi West 4.6 mph - N/A   Clear
11:56 PM 60.1 °F - 59.0 °F 96% 29.97 in 10.0 mi NW 5.8 mph - N/A   Clear